User: anonymous   Login
Location: Terra Rouge Observatory
(46.0000°N, 62.7500°W)
Time: 11:21:39
(UTC-03:00)
Language:

Landsat 5 - Orbit

View from above orbital plane
View from above orbital plane
View from above satellite
View from above satellite

Ground track
Ground track

The orbit data is extracted from the following two-line orbital elements,

1 14780U 84021A   15213.36081895  .00000642  00000-0  67293-4 0  9990
2 14780 098.0301 302.4451 0091385 266.4107 092.6655 14.90456243673674
Epoch (UTC): 01 August 2015 08:39:34
Eccentricity: 0.0091385
inclination: 98.0301°
perigee height: 533 km
apogee height: 660 km
right ascension of ascending node: 302.4451°
argument of perigee: 266.4107°
revolutions per day: 14.90456243
mean anomaly at epoch: 92.6655°
orbit number at epoch: 67367

The dashed part of the orbit path shows where the satellite is in the earth's shadow,  

DLR